Location: Spruce Knob
(38.6995°N, 79.5330°W)
Time: 22:32:46
(UTC-04:00)

A-11 Canister half - Pass Details

Date: 28 January 2022
Orbit: 1513 x 1686 km, 47.2° (Epoch: 24 May)

Event Time Altitude Azimuth Distance (km) Brightness Sun altitude
Rises 21:10:54 0° 298° (WNW) 4,691 12.3 -42.0°
Reaches altitude 10° 21:13:59 10° 300° (WNW) 3,693 11.6 -42.6°
Enters shadow 21:20:23 49° 314° (NW) 1,881 9.5 -43.8°
Maximum altitude 21:23:17 75° 26° (NNE) 1,556 - -44.4°
Drops below altitude 10° 21:32:31 10° 112° (ESE) 3,678 - -46.1°
Sets 21:35:35 0° 114° (ESE) 4,671 - -46.7°
